Terminal Aerodrome Forecast
Issued by NWS

Home | Current Version | Previous Version | Text Only | Print | Product List | Glossary On
Versions: 1 2 3 4 5 6 7 8 9 10 11 12 13 14 15 16 17 18 19 20 21 22 23 24 25 26 27 28 29 30 31 32 33 34 35 36 37 38
000
FTUS42 KGSP 012300 CCA
TAFHKY
TAF COR
KHKY 012351Z 0200/0224 02006KT 1 1/2SM -RA BR BKN003 OVC025
     FM020300 00000KT 1SM BR OVC002
     FM021500 04005KT P6SM OVC005
     FM021600 05004KT P6SM OVC017
     FM021700 05003KT P6SM OVC025 PROB30 0217/0220 4SM TSRA OVC015CB
     FM022000 02003KT P6SM VCTS OVC040CB
     FM022200 01003KT P6SM OVC050=

USA.gov is the U.S. government's official web portal to all federal, state and local government web resources and services.